Presure
171 177 184 192 186 197 174 219 189 185 126 189 188 181 205 184 209 193 216 164 144 178 162 139 160 171 164 127 165 178 183 179 185 184 178 191 180 199 199 173 172 175 171 197 190
189 197 155 206 203 209 179 206 236 227 215 218 198 109 126 191 203 179 212 198 193 158 160 158 149 153 196 189 143 134 159 180 180 176 181 153 177 168 148 166 149 154 153 159 169
194 194 207 206 213 201 234 176 231 245 237 213 220 159 211 225 213 232 210 169 226 201 186 190 133 168 140 188 199 209 123 135 136 135 159 149 185 178 156 162 157 157 193 197 189
184 196 206 191 203 197 216 227 202 244 207 241 220 179 200 237 237 223 196 238 228 187 201 207 195 182 165 142 154 196 185 167 135 149 145 148 144 142 150 155 175 163 161 161 173
199 211 236 158 215 229 227 210 240 219 227 233 257 210 219 231 194 221 223 238 241 229 234 196 202 178 172 193 142 142 167 191 194 132 146 145 135 134 131 140 143 154 162 164 168
204 236 248 220 188 173 242 238 232 219 272 253 305 245 194 320 216 240 235 244 245 238 237 253 201 198 204 172 196 180 138 159 189 160 174 151 133 134 167 139 153 135 140 142 176
227 240 225 220 248 227 243 253 272 325 356 377 274 269 365 213 342 270 271 259 218 233 227 239 232 222 198 206 198 149 190 190 166 162 157 167 135 114 126 119 129 133 157 130 127
247 232 255 238 270 255 266 287 254 263 212 247 252 267 286 254 288 211 227 235 247 241 245 244 241 241 210 212 206 192 206 139 195 204 195 150 185 187 178 132 133 120 178 123 178
242 213 216 258 269 255 265 268 261 261 242 254 260 214 256 259 250 262 375 186 249 258 266 250 234 241 223 237 217 212 220 172 151 170 171 187 195 201 197 187 158 188 177 150 183
321 297 226 195 258 231 266 293 379 333 369 365 333 411 270 256 248 273 283 295 348 292 327 289 265 242 230 215 253 210 221 214 205 204 211 165 150 134 174 146 151 151 135 143 155
224 231 240 230 256 285 374 331 329 401 401 328 372 388 330 307 256 264 256 255 321 255 357 353 224 237 252 243 259 233 236 228 221 216 136 209 218 215 213 155 143 143 158 168 148
254 244 258 257 287 303 330 199 381 380 397 315 376 361 354 354 372 296 287 268 254 256 254 329 342 326 333 299 311 229 229 254 244 240 215 219 190 123 137 174 211 156 146 147 174
256 262 259 289 293 371 365 343 340 348 334 330 369 374 334 348 359 369 360 351 317 273 261 254 289 286 305 256 278 214 221 296 212 230 231 207 220 227 179 208 137 216 170 212 188
252 251 274 296 339 334 364 340 400 322 304 330 316 322 335 345 348 349 351 344 345 305 285 272 256 263 217 226 248 323 299 323 312 239 241 216 206 222 218 217 218 228 213 221 220
251 265 281 313 345 356 371 320 384 369 275 282 369 285 264 322 357 332 332 350 348 338 345 295 347 301 264 249 253 255 251 250 244 330 215 216 225 228 201 222 216 140 226 223 196
258 267 298 319 339 360 323 390 281 267 333 337 342 344 311 311 298 331 341 323 324 331 338 338 340 333 305 284 256 266 219 220 267 269 268 306 211 287 321 314 303 254 205 227 287
254 263 309 351 375 334 308 268 320 342 340 329 328 334 333 348 280 268 296 328 320 315 310 312 328 329 327 324 321 290 276 269 271 272 268 251 242 253 322 320 316 308 302 292 295
257 288 317 384 337 347 260 361 351 335 323 319 347 369 330 324 335 337 285 273 271 272 316 316 310 309 323 318 318 278 286 282 281 269 279 324 306 205 206 294 321 323 324 322 303
269 296 377 342 322 368 376 363 342 323 309 403 383 376 368 395 410 321 324 339 304 262 286 317 313 306 311 306 307 314 315 322 317 295 322 325 326 330 285 273 324 324 325 324 326
278 305 374 322 337 383 355 352 330 310 392 380 374 367 360 392 366 344 309 305 325 310 297 291 314 306 306 305 307 311 320 309 307 316 318 324 324 322 321 322 319 317 292 323 321
291 355 339 322 308 364 340 337 320 306 408 398 369 355 334 333 329 321 291 311 324 315 301 286 300 298 302 304 307 310 311 302 295 284 291 294 324 326 329 326 270 324 328 332 328
294 363 324 309 342 346 336 325 314 307 379 379 369 339 343 330 321 318 307 298 317 324 302 291 286 264 250 296 301 307 307 309 308 290 295 309 321 324 313 302 315 318 303 329 339
346 330 325 344 330 341 327 317 304 382 364 354 381 370 325 322 328 327 329 321 306 328 307 296 283 273 272 270 255 308 294 292 285 294 295 316 307 301 294 300 313 329 325 326 336
311 317 375 351 326 335 323 316 308 371 358 350 339 359 344 329 334 343 324 319 317 315 316 298 289 282 280 268 300 297 290 284 280 282 307 300 343 329 310 323 312 305 348 339 346
338 328 317 337 322 335 321 306 383 369 353 353 323 329 355 337 348 325 337 328 337 315 316 300 292 290 283 272 291 278 278 285 282 302 274 281 318 312 314 333 343 332 340 324 313
365 299 342 313 318 324 324 301 390 355 350 340 340 387 367 359 343 327 319 325 295 338 315 305 297 296 293 288 279 266 273 275 271 283 319 315 366 376 346 326 330 318 307 299 293
321 324 325 326 318 314 318 353 366 353 330 364 377 368 364 356 341 325 346 331 323 318 324 312 303 300 303 279 267 253 274 292 331 320 336 363 354 326 321 317 305 298 290 286 279
Wind_Speed
67 66 76 75 69 77 77 80 77 81 67 78 73 84 75 84 81 85 75 84 73 88 80 65 75 78 73 53 66 70 72 73 74 68 62 65 62 70 72 53 56 49 43 54 50
76 81 72 87 83 86 77 75 91 77 70 73 82 56 67 89 82 88 81 90 92 82 80 78 71 69 83 80 61 56 66 75 71 64 68 59 62 54 45 54 51 47 49 48 50
82 83 92 88 91 81 95 78 91 98 91 77 75 73 78 76 79 82 89 86 82 98 94 95 64 81 63 83 82 82 60 58 55 55 59 57 66 62 52 53 50 50 60 59 57
82 89 95 78 85 78 87 87 76 96 75 89 85 91 82 84 78 75 96 86 86 94 101 103 99 92 80 66 69 83 83 74 56 60 58 56 53 51 54 52 53 54 55 54 52
90 95 94 74 87 92 91 81 97 78 85 85 99 85 90 82 88 79 79 86 85 87 92 103 103 91 87 96 66 65 79 86 83 60 61 55 57 52 57 47 47 54 56 57 55
92 104 101 91 81 80 104 102 90 90 101 102 83 79 92 79 91 80 82 86 91 81 87 88 107 100 107 86 98 89 66 76 83 70 80 63 55 56 74 47 55 53 54 50 59
110 111 95 92 109 92 79 106 95 80 72 70 89 85 75 90 80 94 97 88 91 83 91 86 103 109 103 108 101 74 97 91 78 78 67 73 61 46 51 43 50 51 60 51 44
110 104 106 104 94 89 81 74 85 83 62 84 81 79 70 78 79 87 90 83 78 81 84 90 93 99 112 112 108 95 104 68 100 96 87 65 85 81 82 55 56 47 68 49 67
117 95 98 99 85 83 79 78 81 81 86 80 78 75 72 76 76 75 63 78 81 87 92 84 98 94 110 102 115 110 109 87 73 77 78 84 87 87 88 83 68 78 71 63 71
101 96 99 73 81 90 78 75 59 69 54 56 62 51 72 73 73 77 73 67 67 73 72 101 93 93 103 105 95 101 115 108 106 103 103 79 72 60 81 66 66 64 58 60 62
103 90 83 85 79 79 64 68 69 56 53 66 52 42 65 70 72 73 73 72 64 75 63 66 93 82 88 96 91 109 109 116 116 111 63 99 102 102 100 74 67 67 68 71 63
87 84 79 79 79 77 72 56 54 49 40 57 48 46 46 43 46 69 75 75 72 73 70 64 61 71 70 82 80 106 105 101 107 110 108 106 88 50 62 84 99 71 65 66 75
84 82 79 79 79 66 60 56 53 47 45 46 46 41 49 47 38 38 45 50 64 74 74 68 69 69 70 75 75 106 97 94 97 103 105 91 108 110 86 95 57 101 77 94 83
83 81 83 78 72 65 59 53 40 46 45 39 47 46 45 45 41 40 40 48 48 63 73 70 71 66 83 78 71 66 76 82 89 102 102 101 88 107 107 101 104 106 101 100 98
85 87 84 80 69 62 56 53 37 31 40 41 20 49 45 45 39 45 44 42 40 43 44 64 47 63 70 69 70 72 72 73 72 83 96 100 95 104 95 103 99 59 102 102 80
90 88 83 78 69 59 52 38 53 45 28 27 25 27 41 45 43 40 45 44 43 43 40 42 41 48 60 68 69 72 77 74 71 68 67 74 84 73 79 85 89 103 94 99 98
90 85 82 72 63 58 55 53 37 30 28 29 30 27 27 28 47 47 43 41 46 47 48 48 40 41 43 45 48 64 69 70 69 68 64 68 70 70 70 75 81 85 87 89 90
92 88 81 65 62 58 52 35 27 28 29 33 26 20 26 27 29 34 47 47 49 48 46 45 46 44 39 41 43 58 59 62 67 66 65 59 64 78 75 68 70 72 75 77 80
93 87 67 65 63 54 38 31 27 27 30 14 16 17 18 7 15 32 34 37 50 46 48 43 42 44 42 45 46 41 42 43 48 61 49 55 53 59 66 70 62 62 62 62 63
89 83 61 66 60 43 37 28 26 27 20 15 17 12 7 15 17 22 34 38 39 48 50 45 41 42 43 43 42 41 39 46 49 44 46 49 51 52 53 55 56 54 56 54 57
88 69 64 63 61 41 36 30 27 27 14 20 17 13 14 26 24 34 40 41 40 46 47 47 42 43 40 39 39 38 40 46 53 56 52 51 44 43 45 48 50 47 46 46 47
86 62 65 63 49 39 34 33 30 28 14 8 23 16 31 36 37 44 50 37 41 44 48 47 44 43 41 39 37 36 35 34 39 50 47 41 37 38 38 39 39 35 37 36 36
73 67 66 50 48 40 34 33 31 14 13 8 16 23 28 29 38 41 43 40 37 38 45 45 44 43 39 35 36 32 36 40 42 42 39 33 35 28 26 30 29 28 28 28 26
76 67 50 43 45 39 36 33 32 14 12 10 10 17 36 33 34 44 43 35 36 36 42 44 43 42 37 36 31 29 36 40 36 33 28 29 26 26 25 23 24 26 19 22 21
71 64 55 43 44 38 36 32 16 14 12 12 12 14 23 36 39 27 29 31 31 35 40 43 43 40 35 33 30 35 35 34 31 27 20 20 20 19 19 19 20 21 19 18 17
64 66 47 50 43 39 33 32 9 12 10 11 13 19 26 26 35 27 25 28 29 30 39 43 41 37 33 29 33 33 29 24 20 21 21 15 19 17 19 22 23 22 21 19 16
69 62 52 46 40 38 32 25 11 10 9 13 11 13 19 21 25 29 24 24 26 28 32 39 38 35 31 29 31 21 20 21 18 15 16 18 19 25 25 26 25 23 21 18 15
Wind_Direction
283 279 284 283 274 280 268 284 264 272 260 264 263 256 260 254 248 253 253 252 254 251 253 251 252 250 253 247 247 246 246 247 248 249 252 254 251 254 255 246 251 249 244 259 256
289 289 280 290 287 287 267 277 288 278 267 270 260 263 260 254 253 255 247 250 249 251 250 251 251 247 245 246 246 245 242 247 244 245 247 241 247 245 234 241 237 241 242 242 246
291 289 291 288 288 282 289 269 290 289 282 264 270 264 261 263 266 261 249 255 250 247 249 248 248 249 246 246 245 243 250 248 245 243 241 242 245 245 239 236 238 238 255 253 253
293 294 291 288 290 289 290 288 278 289 262 285 279 264 255 274 271 262 250 257 249 254 246 244 249 249 249 248 247 244 244 249 243 243 239 239 240 238 241 236 240 239 241 241 245
294 296 297 289 290 288 291 285 285 284 282 283 279 253 262 262 254 254 260 261 254 249 247 248 246 248 248 248 244 245 249 244 244 242 243 238 243 241 245 237 235 241 244 243 244
295 305 300 296 283 281 295 295 293 286 282 281 269 277 257 264 245 261 261 258 251 251 246 250 244 246 246 247 249 247 242 247 245 250 248 246 241 243 247 242 241 241 245 244 247
307 306 301 302 299 303 287 290 291 283 280 276 270 275 266 262 256 258 255 256 243 247 245 245 242 242 246 246 248 244 249 250 246 249 248 251 246 248 248 245 243 240 247 247 245
306 311 302 303 297 294 294 292 286 282 280 282 278 272 268 265 261 260 246 243 250 245 251 250 242 243 242 242 246 248 250 241 250 249 248 242 248 247 249 247 243 243 248 247 248
311 306 308 300 299 295 293 288 285 284 287 279 275 270 267 264 260 258 255 261 252 255 256 247 246 240 241 243 242 246 243 246 243 245 246 249 249 249 249 248 249 250 251 248 249
316 309 304 305 301 295 294 294 295 283 279 274 269 276 263 261 262 255 254 254 251 245 246 246 249 241 246 246 244 248 245 247 249 251 251 245 244 244 247 241 243 243 243 246 248
311 309 308 304 302 303 307 296 292 292 283 277 272 276 260 257 256 256 256 254 250 252 245 242 240 242 248 239 245 241 240 242 244 246 240 251 250 253 254 242 242 242 243 249 244
315 312 313 310 311 309 304 301 298 289 278 273 267 260 257 250 254 251 249 251 251 250 250 244 242 241 243 242 243 244 245 240 247 241 248 248 252 239 241 247 255 241 242 243 248
319 319 316 319 314 317 313 303 298 293 285 272 267 257 257 253 252 247 242 243 244 250 250 247 244 242 244 243 243 249 250 243 252 246 244 250 250 248 249 251 246 255 246 257 248
321 319 320 321 319 315 317 308 312 295 289 285 270 263 254 250 245 244 242 241 241 244 247 248 247 245 235 241 246 241 245 243 243 244 241 250 253 251 253 253 253 248 257 251 256
323 324 323 323 321 318 319 306 308 304 293 286 278 268 266 253 237 242 238 238 236 235 236 242 237 242 246 246 247 247 246 248 248 248 247 249 250 248 250 251 254 249 250 255 254
326 325 325 324 322 320 314 312 309 306 286 279 268 263 260 250 250 242 236 239 237 234 234 236 235 237 241 243 246 246 251 252 250 248 245 248 251 249 248 248 249 251 253 254 250
327 324 326 325 322 319 315 313 305 291 291 284 275 264 253 246 250 251 243 230 232 234 234 234 232 234 237 239 240 242 244 248 251 251 246 240 248 238 248 250 250 250 251 251 251
326 326 327 324 323 324 317 313 301 292 290 288 277 258 255 243 237 232 243 243 244 244 233 233 235 236 234 236 237 244 243 245 247 248 250 247 248 248 249 247 252 253 255 257 256
326 328 326 326 324 324 318 312 301 294 295 215 230 221 241 234 202 232 232 227 234 241 242 232 229 232 232 236 237 236 238 240 245 247 249 251 250 252 253 252 255 255 256 257 258
328 329 326 326 326 323 319 316 299 296 288 252 250 232 258 157 164 197 226 227 225 226 232 236 226 229 231 233 235 237 238 238 243 246 248 250 252 254 255 258 260 259 256 257 255
329 329 329 326 325 322 318 315 305 304 298 216 237 217 185 166 172 186 225 230 220 220 224 230 227 228 229 229 231 233 238 239 244 248 252 257 260 256 255 255 252 258 260 258 257
329 327 328 326 324 322 317 312 311 314 302 239 218 200 178 188 193 196 213 235 221 216 222 226 227 230 230 230 233 237 237 242 246 250 256 263 261 255 251 255 258 254 252 249 248
331 328 327 325 323 319 315 310 314 288 296 286 213 210 206 223 210 216 216 219 223 218 222 227 228 230 230 229 230 242 236 243 246 255 261 261 254 258 247 245 249 248 245 239 239
331 329 325 323 322 320 313 311 314 275 276 262 250 217 199 220 224 218 229 236 224 218 218 225 228 229 227 225 236 234 237 245 252 257 259 257 251 242 242 238 233 234 208 215 218
331 329 325 324 321 320 314 313 258 262 266 258 236 238 213 218 221 231 227 222 214 223 218 223 227 228 224 220 228 231 238 244 255 255 242 238 237 223 224 212 188 198 186 177 179
330 330 322 325 319 320 315 313 250 253 256 255 251 230 216 211 218 221 218 220 215 207 217 224 227 228 226 220 221 225 235 245 244 248 241 232 227 191 178 182 174 166 164 170 174
330 329 322 319 316 318 313 308 225 230 252 283 251 212 207 189 179 190 199 201 205 211 214 224 228 230 230 210 215 201 235 242 246 228 216 205 167 165 170 160 161 160 162 159 165